Location: Bremen
(53.0793°N, 8.8017°E)
Time: 21:25:15
(UTC+01:00)

Tiros 1 - Pass Details

Date: 10 December 2021
Orbit: 629 x 664 km, 48.4° (Epoch: 18 January)

Event Time Altitude Azimuth Distance (km) Brightness Sun altitude
Rises 20:39:52 0° 271° (W) 2,931 11.4 -39.3°
Reaches altitude 10° 20:42:18 10° 264° (W) 2,026 10.3 -39.7°
Enters shadow 20:42:25 11° 263° (W) 1,985 10.2 -39.7°
